QPF
0.00 0.00 0.00 0.00 0.00 0.00 0.00 0.01 0.01 0.01 0.00 0.00 0.00 0.00 0.00 0.00 0.00 0.00 0.00 0.00 0.00 0.00 0.00 0.00 0.00 0.00 0.00 0.00 0.00 0.00 0.00 0.00 0.00 0.00 0.00 0.00 0.00 0.00 0.00 0.00 0.00 0.00 0.00 0.00 0.00 0.00 0.00
0.00 0.00 0.00 0.00 0.00 0.00 0.00 0.00 0.00 0.01 0.01 0.00 0.00 0.00 0.00 0.00 0.00 0.00 0.00 0.00 0.00 0.00 0.00 0.00 0.00 0.00 0.00 0.00 0.00 0.00 0.00 0.00 0.00 0.00 0.00 0.00 0.00 0.00 0.00 0.00 0.00 0.00 0.00 0.00 0.00 0.00 0.00
0.00 0.00 0.00 0.00 0.00 0.00 0.00 0.00 0.00 0.00 0.00 0.00 0.00 0.00 0.00 0.00 0.00 0.00 0.00 0.00 0.00 0.00 0.00 0.00 0.00 0.00 0.00 0.00 0.00 0.00 0.00 0.00 0.00 0.00 0.00 0.00 0.00 0.00 0.00 0.00 0.00 0.00 0.00 0.00 0.00 0.00 0.00
0.00 0.00 0.00 0.00 0.00 0.00 0.00 0.00 0.00 0.00 0.00 0.00 0.00 0.00 0.00 0.00 0.01 0.01 0.00 0.00 0.00 0.00 0.00 0.00 0.00 0.00 0.00 0.00 0.00 0.00 0.00 0.00 0.00 0.00 0.00 0.00 0.00 0.00 0.00 0.00 0.00 0.00 0.00 0.00 0.00 0.00 0.00
0.00 0.00 0.00 0.00 0.00 0.00 0.00 0.00 0.00 0.00 0.00 0.00 0.00 0.00 0.00 0.00 0.04 0.05 0.02 0.00 0.00 0.00 0.00 0.00 0.00 0.00 0.00 0.00 0.00 0.00 0.00 0.00 0.00 0.00 0.00 0.00 0.00 0.00 0.00 0.00 0.00 0.00 0.00 0.00 0.00 0.00 0.00
0.00 0.00 0.00 0.00 0.00 0.00 0.00 0.00 0.00 0.00 0.00 0.00 0.00 0.00 0.00 0.00 0.01 0.03 0.02 0.01 0.00 0.00 0.00 0.00 0.00 0.00 0.00 0.00 0.00 0.00 0.00 0.00 0.00 0.00 0.00 0.00 0.00 0.00 0.00 0.00 0.00 0.00 0.00 0.00 0.00 0.00 0.00
0.00 0.00 0.00 0.00 0.00 0.00 0.00 0.00 0.00 0.00 0.00 0.00 0.00 0.00 0.00 0.00 0.00 0.00 0.00 0.00 0.00 0.00 0.00 0.00 0.00 0.00 0.00 0.00 0.00 0.00 0.00 0.00 0.00 0.00 0.00 0.00 0.00 0.00 0.00 0.00 0.00 0.00 0.00 0.00 0.00 0.00 0.00
0.00 0.00 0.00 0.00 0.00 0.00 0.00 0.00 0.00 0.00 0.00 0.00 0.00 0.00 0.00 0.00 0.01 0.01 0.00 0.00 0.00 0.00 0.00 0.00 0.00 0.00 0.00 0.00 0.00 0.00 0.00 0.00 0.00 0.00 0.00 0.00 0.00 0.00 0.00 0.00 0.00 0.00 0.00 0.00 0.00 0.00 0.00
0.00 0.00 0.00 0.00 0.00 0.00 0.00 0.00 0.00 0.00 0.01 0.00 0.00 0.00 0.00 0.01 0.00 0.00 0.00 0.00 0.00 0.00 0.00 0.00 0.00 0.00 0.00 0.00 0.00 0.00 0.00 0.00 0.00 0.00 0.00 0.00 0.00 0.00 0.00 0.00 0.00 0.00 0.00 0.00 0.00 0.00 0.00
0.00 0.00 0.00 0.00 0.00 0.00 0.00 0.00 0.00 0.00 0.00 0.01 0.00 0.00 0.00 0.01 0.00 0.00 0.00 0.00 0.00 0.00 0.00 0.00 0.00 0.00 0.00 0.00 0.00 0.00 0.00 0.00 0.00 0.00 0.00 0.00 0.00 0.00 0.00 0.00 0.00 0.00 0.00 0.00 0.00 0.00 0.00
0.00 0.00 0.00 0.00 0.00 0.00 0.00 0.00 0.00 0.00 0.00 0.01 0.00 0.00 0.00 0.00 0.00 0.00 0.00 0.00 0.00 0.00 0.00 0.00 0.00 0.00 0.00 0.00 0.00 0.00 0.00 0.00 0.00 0.00 0.00 0.00 0.00 0.00 0.00 0.00 0.00 0.00 0.00 0.00 0.00 0.00 0.00
0.01 0.00 0.00 0.00 0.00 0.00 0.00 0.00 0.00 0.00 0.00 0.00 0.01 0.01 0.00 0.00 0.00 0.00 0.00 0.00 0.00 0.00 0.00 0.00 0.00 0.00 0.00 0.00 0.00 0.00 0.00 0.00 0.00 0.00 0.00 0.00 0.00 0.00 0.00 0.00 0.00 0.00 0.00 0.00 0.00 0.00 0.00
0.00 0.01 0.00 0.00 0.00 0.00 0.00 0.00 0.00 0.00 0.00 0.00 0.01 0.01 0.00 0.00 0.00 0.00 0.00 0.00 0.00 0.00 0.00 0.00 0.00 0.00 0.00 0.00 0.00 0.00 0.00 0.00 0.00 0.00 0.00 0.00 0.00 0.00 0.00 0.00 0.00 0.00 0.00 0.00 0.00 0.00 0.00
0.00 0.01 0.01 0.00 0.00 0.00 0.00 0.00 0.00 0.00 0.00 0.00 0.00 0.01 0.02 0.00 0.00 0.00 0.00 0.00 0.00 0.00 0.00 0.00 0.00 0.00 0.00 0.00 0.00 0.00 0.00 0.00 0.00 0.00 0.00 0.00 0.00 0.00 0.00 0.00 0.00 0.00 0.00 0.00 0.00 0.00 0.00
0.01 0.00 0.01 0.00 0.00 0.00 0.00 0.00 0.00 0.00 0.00 0.00 0.00 0.01 0.02 0.01 0.00 0.00 0.00 0.01 0.00 0.00 0.00 0.00 0.00 0.00 0.00 0.00 0.00 0.00 0.00 0.00 0.00 0.00 0.00 0.00 0.00 0.00 0.00 0.00 0.00 0.00 0.00 0.00 0.00 0.00 0.00
0.02 0.00 0.00 0.00 0.00 0.00 0.00 0.00 0.00 0.00 0.01 0.01 0.00 0.01 0.01 0.01 0.01 0.01 0.02 0.00 0.00 0.00 0.00 0.00 0.00 0.00 0.00 0.00 0.00 0.00 0.00 0.00 0.00 0.00 0.00 0.00 0.00 0.00 0.00 0.00 0.00 0.00 0.00 0.00 0.00 0.00 0.00
0.03 0.02 0.01 0.00 0.00 0.00 0.00 0.00 0.01 0.01 0.00 0.01 0.01 0.01 0.00 0.00 0.03 0.05 0.03 0.00 0.00 0.00 0.00 0.00 0.00 0.00 0.00 0.00 0.00 0.00 0.00 0.00 0.00 0.00 0.00 0.00 0.00 0.00 0.00 0.00 0.00 0.00 0.00 0.00 0.00 0.00 0.00
0.00 0.01 0.01 0.00 0.00 0.00 0.00 0.00 0.01 0.00 0.00 0.06 0.02 0.00 0.00 0.00 0.03 0.04 0.01 0.00 0.00 0.00 0.00 0.00 0.00 0.00 0.00 0.00 0.00 0.00 0.00 0.00 0.00 0.00 0.00 0.00 0.00 0.00 0.00 0.00 0.00 0.00 0.00 0.00 0.00 0.00 0.00
0.01 0.01 0.00 0.00 0.00 0.00 0.00 0.00 0.01 0.00 0.04 0.02 0.01 0.01 0.05 0.01 0.00 0.00 0.00 0.00 0.00 0.00 0.00 0.00 0.00 0.00 0.00 0.01 0.01 0.00 0.00 0.00 0.00 0.00 0.00 0.00 0.01 0.01 0.00 0.00 0.00 0.00 0.00 0.00 0.00 0.00 0.00
0.01 0.02 0.01 0.00 0.00 0.00 0.00 0.00 0.00 0.00 0.03 0.04 0.02 0.02 0.15 0.16 0.01 0.00 0.00 0.00 0.00 0.00 0.00 0.00 0.00 0.00 0.01 0.01 0.01 0.00 0.00 0.00 0.00 0.00 0.00 0.00 0.01 0.00 0.00 0.00 0.00 0.01 0.00 0.00 0.00 0.00 0.00
0.01 0.01 0.01 0.00 0.00 0.00 0.00 0.00 0.00 0.00 0.02 0.05 0.02 0.01 0.02 0.11 0.09 0.01 0.00 0.00 0.00 0.00 0.00 0.00 0.00 0.00 0.00 0.00 0.00 0.00 0.00 0.00 0.00 0.00 0.00 0.00 0.00 0.00 0.00 0.00 0.00 0.00 0.00 0.00 0.00 0.00 0.00
0.01 0.01 0.01 0.00 0.00 0.00 0.01 0.00 0.00 0.00 0.00 0.02 0.07 0.04 0.04 0.03 0.05 0.06 0.04 0.01 0.00 0.00 0.00 0.00 0.00 0.00 0.00 0.00 0.00 0.00 0.00 0.00 0.00 0.00 0.00 0.00 0.00 0.01 0.01 0.00 0.00 0.00 0.00 0.00 0.00 0.00 0.00
0.01 0.00 0.01 0.00 0.00 0.00 0.01 0.01 0.00 0.00 0.00 0.01 0.03 0.04 0.04 0.03 0.09 0.17 0.10 0.02 0.00 0.01 0.01 0.00 0.00 0.00 0.00 0.00 0.01 0.02 0.01 0.01 0.00 0.00 0.01 0.01 0.02 0.04 0.02 0.00 0.00 0.00 0.00 0.00 0.00 0.00 0.00
0.01 0.01 0.01 0.00 0.00 0.00 0.01 0.01 0.00 0.00 0.00 0.01 0.01 0.03 0.03 0.02 0.02 0.05 0.04 0.01 0.00 0.01 0.00 0.00 0.00 0.00 0.00 0.02 0.02 0.01 0.00 0.00 0.00 0.00 0.01 0.02 0.04 0.02 0.02 0.01 0.02 0.00 0.00 0.00 0.00 0.00 0.00
0.01 0.01 0.00 0.00 0.00 0.00 0.00 0.00 0.00 0.00 0.00 0.00 0.02 0.05 0.02 0.00 0.00 0.02 0.02 0.00 0.00 0.00 0.01 0.00 0.00 0.00 0.00 0.01 0.04 0.10 0.08 0.03 0.00 0.00 0.00 0.00 0.00 0.01 0.02 0.01 0.00 0.00 0.00 0.00 0.00 0.00 0.00
0.02 0.02 0.00 0.00 0.00 0.01 0.00 0.00 0.01 0.02 0.01 0.01 0.01 0.04 0.04 0.02 0.00 0.01 0.02 0.00 0.01 0.00 0.02 0.01 0.00 0.00 0.00 0.00 0.03 0.08 0.06 0.02 0.00 0.00 0.00 0.00 0.00 0.00 0.01 0.02 0.00 0.00 0.00 0.00 0.00 0.00 0.00
0.03 0.02 0.00 0.00 0.00 0.01 0.00 0.00 0.01 0.03 0.04 0.03 0.00 0.01 0.04 0.02 0.00 0.00 0.01 0.00 0.00 0.00 0.00 0.00 0.00 0.00 0.00 0.00 0.01 0.01 0.01 0.00 0.00 0.00 0.00 0.00 0.00 0.01 0.00 0.00 0.00 0.00 0.00 0.00 0.00 0.00 0.00
0.03 0.01 0.00 0.00 0.00 0.00 0.00 0.00 0.01 0.03 0.07 0.04 0.00 0.02 0.04 0.02 0.00 0.00 0.00 0.00 0.00 0.00 0.00 0.00 0.00 0.00 0.00 0.02 0.01 0.00 0.00 0.00 0.00 0.00 0.00 0.00 0.00 0.00 0.00 0.00 0.00 0.00 0.00 0.00 0.00 0.00 0.00
0.05 0.01 0.00 0.00 0.00 0.00 0.00 0.00 0.01 0.03 0.06 0.04 0.02 0.02 0.10 0.08 0.01 0.00 0.00 0.00 0.00 0.00 0.00 0.00 0.00 0.00 0.00 0.00 0.00 0.00 0.00 0.00 0.00 0.00 0.00 0.00 0.00 0.00 0.00 0.00 0.00 0.00 0.00 0.00 0.00 0.00 0.00
MSLP
1018.34 1018.44 1018.67 1018.54 1018.86 1018.98 1018.91 1018.99 1019.36 1019.33 1019.45 1019.65 1019.68 1019.87 1020.10 1020.27 1020.33 1020.54 1020.76 1020.76 1020.66 1020.31 1020.24 1019.58 1018.91 1018.28 1017.72 1017.37 1015.96 1014.89 1015.02 1015.01 1014.76 1014.80 1014.84 1014.92 1015.21 1015.59 1015.87 1015.98 1015.56 1015.48 1014.92 1014.55 1014.33 1013.95 1013.75
1018.31 1018.45 1018.57 1018.82 1018.77 1019.07 1019.12 1019.29 1019.43 1019.37 1019.29 1019.36 1019.66 1020.03 1019.88 1020.05 1020.28 1020.56 1020.70 1020.77 1020.76 1020.52 1020.03 1019.88 1019.22 1018.57 1018.58 1017.36 1015.08 1015.02 1015.05 1015.05 1014.91 1015.05 1015.10 1014.94 1015.25 1015.39 1015.92 1016.23 1016.21 1015.72 1015.30 1014.80 1014.16 1014.04 1013.82
1018.35 1018.44 1018.69 1018.56 1019.01 1019.01 1019.20 1019.12 1019.52 1019.43 1019.30 1019.27 1019.46 1019.67 1019.83 1019.97 1020.09 1020.32 1020.76 1020.69 1020.76 1020.51 1020.07 1020.04 1019.56 1019.14 1018.92 1016.63 1015.26 1015.00 1015.24 1015.19 1014.82 1015.03 1015.32 1015.24 1015.25 1015.48 1016.01 1016.28 1016.15 1015.86 1015.67 1014.85 1014.04 1013.86 1013.73
1017.84 1018.16 1018.68 1018.64 1018.69 1018.77 1019.20 1019.41 1019.31 1019.12 1019.32 1019.40 1019.37 1019.50 1019.67 1019.81 1019.96 1020.19 1020.48 1020.78 1020.62 1020.46 1020.18 1020.09 1019.85 1019.41 1017.90 1015.44 1015.52 1015.26 1015.07 1015.12 1014.84 1014.90 1015.12 1015.35 1015.30 1015.83 1016.11 1016.43 1016.34 1016.51 1016.10 1015.60 1014.48 1014.20 1014.23
1017.88 1018.03 1018.27 1018.48 1018.54 1018.68 1019.00 1019.22 1019.26 1019.33 1019.20 1019.28 1019.62 1019.32 1019.65 1019.55 1019.72 1020.19 1020.54 1020.74 1020.71 1020.40 1020.20 1020.00 1019.99 1019.54 1017.22 1015.08 1015.36 1014.97 1014.81 1015.00 1015.12 1015.10 1015.04 1015.25 1015.52 1016.31 1016.68 1017.10 1017.30 1017.05 1016.74 1016.01 1014.88 1014.48 1014.92
1017.79 1018.02 1017.93 1018.14 1018.52 1018.67 1018.57 1018.92 1019.19 1019.20 1019.42 1019.47 1019.42 1019.69 1019.35 1019.64 1019.76 1020.16 1020.54 1020.71 1020.35 1020.31 1019.84 1019.78 1019.57 1019.64 1016.60 1015.34 1014.72 1014.72 1015.04 1014.99 1015.27 1015.31 1015.58 1015.80 1016.58 1017.07 1017.63 1017.72 1017.56 1017.05 1016.76 1016.25 1015.71 1015.48 1016.06
1017.16 1017.65 1017.81 1018.12 1018.38 1018.58 1018.78 1018.72 1018.86 1019.05 1019.14 1019.29 1019.38 1019.52 1019.52 1019.43 1019.90 1020.39 1020.72 1020.84 1020.94 1020.53 1019.90 1019.04 1018.70 1017.75 1016.38 1015.71 1014.74 1014.63 1014.80 1015.42 1015.71 1016.00 1016.35 1016.67 1017.50 1017.45 1017.26 1017.01 1016.79 1016.85 1016.63 1016.37 1015.91 1015.98 1017.18
1017.26 1017.38 1017.71 1017.91 1018.03 1018.40 1018.51 1018.91 1018.80 1018.86 1019.02 1019.25 1019.39 1019.52 1019.56 1019.57 1020.08 1020.50 1020.62 1020.81 1020.36 1020.44 1019.47 1017.97 1017.72 1017.37 1016.38 1016.31 1015.62 1014.81 1014.67 1015.45 1016.20 1016.50 1017.01 1017.58 1017.00 1016.34 1017.02 1017.02 1016.79 1016.67 1016.52 1016.44 1016.25 1016.28 1017.72
1016.94 1017.27 1017.64 1017.89 1017.91 1018.20 1018.45 1018.49 1018.84 1018.78 1018.67 1019.15 1019.34 1019.39 1019.68 1020.12 1020.56 1020.88 1020.73 1020.44 1020.00 1020.40 1020.11 1017.33 1016.30 1015.70 1015.45 1015.53 1015.19 1014.78 1014.93 1015.22 1015.86 1016.65 1016.82 1017.15 1016.17 1015.56 1016.43 1016.74 1016.74 1016.44 1016.25 1016.39 1016.51 1016.94 1018.08
1016.79 1016.85 1017.18 1017.58 1017.93 1018.02 1018.44 1018.28 1018.56 1018.73 1018.65 1018.76 1019.32 1019.48 1019.68 1020.13 1020.92 1021.08 1020.90 1020.25 1020.35 1020.72 1020.24 1016.85 1015.51 1013.63 1013.62 1013.91 1013.74 1013.83 1014.03 1014.65 1015.51 1015.77 1016.58 1016.57 1015.90 1015.72 1015.79 1015.74 1015.91 1016.10 1015.76 1016.08 1016.63 1017.63 1018.84
1016.16 1016.55 1016.88 1017.27 1017.60 1018.04 1018.13 1018.32 1018.32 1018.43 1018.65 1018.70 1019.08 1019.68 1019.99 1019.87 1020.80 1021.12 1020.67 1020.36 1020.46 1020.80 1019.68 1015.61 1014.29 1013.02 1013.01 1013.84 1013.35 1013.56 1013.36 1014.24 1014.58 1015.17 1015.96 1015.26 1015.15 1015.09 1015.09 1014.78 1015.09 1015.44 1015.72 1016.27 1016.92 1018.10 1018.95
1015.55 1016.05 1016.42 1016.91 1017.38 1017.73 1018.01 1018.24 1018.15 1018.16 1018.50 1018.76 1019.19 1019.62 1020.18 1020.68 1020.61 1020.49 1020.34 1020.38 1020.91 1021.41 1018.32 1015.02 1013.62 1013.47 1013.87 1013.84 1013.43 1013.30 1013.82 1014.19 1014.57 1015.16 1015.28 1015.29 1014.87 1014.85 1014.50 1014.23 1014.51 1014.91 1016.02 1016.98 1017.76 1018.83 1019.33
1015.16 1015.49 1015.94 1016.40 1017.11 1017.52 1017.80 1018.09 1017.99 1018.21 1018.35 1018.81 1018.96 1019.48 1020.32 1020.57 1020.56 1020.27 1020.53 1020.95 1021.93 1020.63 1017.11 1015.29 1013.97 1013.94 1014.08 1014.39 1014.26 1013.92 1014.21 1014.60 1014.71 1015.19 1015.23 1015.30 1014.64 1014.36 1014.42 1014.63 1014.81 1015.26 1016.43 1017.84 1018.95 1019.56 1019.08
1014.37 1015.14 1015.58 1016.11 1016.51 1017.20 1017.56 1017.79 1017.89 1018.06 1018.34 1018.80 1019.09 1019.79 1019.97 1020.46 1020.36 1020.51 1021.04 1021.89 1021.57 1018.24 1017.02 1015.34 1014.58 1014.52 1014.75 1014.56 1014.75 1014.60 1014.62 1014.85 1015.03 1014.72 1014.92 1014.97 1014.31 1013.54 1013.34 1013.68 1014.48 1015.33 1015.96 1016.84 1017.72 1018.83 1019.15
1013.81 1014.56 1015.01 1015.72 1016.33 1016.70 1017.19 1017.59 1017.63 1017.78 1018.15 1018.62 1018.99 1019.90 1020.27 1020.52 1020.69 1020.95 1021.40 1021.26 1018.56 1017.35 1016.35 1015.56 1015.34 1015.22 1015.02 1014.85 1015.02 1015.19 1015.05 1014.70 1014.30 1014.36 1014.71 1014.47 1013.82 1012.65 1012.66 1012.72 1013.41 1014.83 1015.50 1016.08 1017.40 1018.77 1019.80
1013.13 1014.01 1014.51 1015.21 1015.84 1016.60 1016.81 1017.15 1017.47 1017.67 1017.79 1018.27 1019.30 1019.78 1019.93 1020.04 1020.71 1021.37 1021.57 1018.98 1017.49 1016.29 1015.70 1015.56 1015.89 1015.68 1015.26 1015.11 1015.28 1015.33 1014.88 1013.89 1013.69 1013.73 1013.62 1013.75 1013.81 1012.90 1012.61 1012.59 1012.92 1013.30 1014.62 1015.99 1017.26 1018.83 1019.99
1012.45 1013.17 1013.95 1014.71 1015.37 1016.03 1016.27 1016.79 1016.98 1017.15 1017.43 1018.02 1019.04 1019.60 1019.14 1019.84 1020.78 1021.34 1019.48 1017.77 1016.41 1016.12 1015.88 1016.10 1015.56 1015.58 1015.59 1015.38 1015.23 1015.10 1014.51 1013.63 1012.95 1012.81 1013.32 1013.54 1014.32 1013.76 1013.06 1012.66 1012.66 1013.52 1014.19 1015.43 1016.51 1018.23 1019.63
1011.61 1012.52 1013.24 1014.09 1014.84 1015.32 1015.81 1016.30 1016.31 1016.61 1017.03 1017.81 1018.23 1018.86 1018.52 1019.39 1020.29 1019.43 1017.41 1016.59 1016.30 1015.73 1015.86 1015.75 1015.56 1015.23 1015.52 1015.36 1015.29 1014.98 1014.13 1013.04 1012.27 1012.40 1013.29 1013.72 1013.92 1013.78 1013.39 1012.70 1012.64 1012.89 1013.72 1014.90 1016.22 1018.45 1019.81
1011.04 1011.85 1012.60 1013.49 1014.19 1014.72 1015.35 1015.80 1015.89 1015.57 1015.75 1016.20 1017.37 1017.93 1018.33 1018.72 1018.15 1017.56 1016.88 1016.71 1016.74 1015.42 1015.60 1015.55 1015.03 1014.73 1014.94 1015.25 1015.53 1014.48 1013.60 1012.74 1012.47 1012.45 1012.63 1013.50 1014.13 1014.27 1013.71 1013.42 1013.12 1013.29 1013.93 1014.79 1016.20 1017.80 1019.57
1010.23 1011.07 1012.03 1012.87 1013.72 1014.41 1014.81 1015.29 1015.29 1015.07 1015.33 1015.48 1016.73 1017.33 1017.56 1017.71 1016.50 1016.86 1016.99 1015.73 1015.78 1015.54 1015.64 1015.10 1014.54 1014.88 1014.81 1014.67 1014.65 1014.22 1013.32 1012.92 1012.72 1012.94 1012.63 1013.02 1013.84 1014.15 1014.07 1013.64 1013.55 1014.00 1014.31 1015.05 1016.20 1017.96 1019.35
1009.74 1010.57 1011.30 1012.28 1013.07 1013.81 1014.45 1014.55 1015.04 1014.93 1015.00 1015.34 1015.92 1015.73 1015.38 1015.82 1015.77 1015.96 1016.01 1014.83 1014.73 1014.82 1015.09 1014.80 1014.24 1014.07 1014.37 1014.71 1014.33 1013.87 1013.61 1013.43 1013.32 1013.46 1013.25 1013.45 1014.07 1014.62 1014.60 1013.95 1014.21 1014.35 1014.45 1015.23 1015.97 1017.14 1018.80
1009.17 1009.93 1010.84 1011.59 1012.37 1013.34 1013.69 1014.17 1014.30 1014.65 1014.72 1015.05 1015.36 1015.74 1015.72 1015.13 1015.14 1015.27 1014.82 1013.26 1013.51 1013.21 1013.93 1013.58 1013.43 1013.35 1013.71 1013.29 1013.19 1013.34 1013.65 1013.62 1013.55 1013.93 1013.80 1013.90 1014.87 1014.71 1014.74 1014.51 1014.73 1014.64 1014.76 1015.30 1016.16 1017.44 1018.73
1008.51 1009.33 1010.12 1010.94 1011.81 1012.61 1012.99 1013.53 1013.76 1014.16 1014.19 1014.42 1014.62 1014.75 1015.04 1014.50 1014.44 1014.24 1013.15 1012.59 1011.85 1013.02 1012.89 1012.52 1012.88 1013.31 1012.79 1012.10 1012.82 1012.74 1012.74 1013.05 1013.12 1013.54 1014.04 1014.45 1015.14 1015.92 1015.37 1015.19 1015.27 1015.54 1015.27 1015.63 1016.59 1017.42 1018.58
1008.01 1008.69 1009.44 1010.37 1011.32 1011.94 1012.40 1012.90 1013.36 1013.55 1013.64 1014.11 1014.07 1014.15 1014.38 1013.62 1013.34 1012.30 1011.83 1011.60 1011.60 1011.52 1011.56 1011.73 1012.03 1012.21 1011.99 1011.94 1012.57 1012.73 1012.91 1012.98 1013.13 1013.68 1013.97 1015.05 1015.80 1016.14 1015.49 1015.48 1015.62 1015.46 1015.62 1015.84 1016.83 1018.10 1018.83
1007.48 1008.10 1008.98 1009.92 1010.65 1011.38 1011.76 1012.35 1012.81 1013.25 1013.48 1014.00 1013.75 1013.71 1013.25 1012.91 1012.18 1011.77 1011.28 1011.12 1011.07 1011.22 1011.40 1011.48 1010.85 1010.60 1011.44 1012.16 1013.22 1013.84 1014.26 1014.12 1013.46 1013.80 1014.41 1014.94 1015.34 1015.66 1015.34 1015.59 1015.84 1015.61 1015.98 1016.41 1016.77 1018.40 1019.14
1006.99 1007.77 1008.60 1009.42 1010.15 1010.71 1011.24 1011.65 1012.18 1012.68 1013.07 1013.36 1013.07 1013.15 1012.72 1012.12 1011.13 1010.66 1010.89 1010.56 1010.41 1010.59 1011.16 1011.12 1010.56 1010.28 1010.87 1012.20 1013.89 1013.81 1013.75 1013.45 1013.39 1013.56 1014.06 1014.57 1014.79 1015.43 1015.53 1015.48 1015.41 1015.07 1015.34 1015.92 1016.32 1017.94 1018.71
1006.62 1007.47 1008.26 1009.07 1009.78 1010.31 1010.72 1011.20 1011.79 1012.17 1012.34 1012.54 1012.20 1012.26 1012.22 1011.48 1010.43 1010.20 1009.73 1009.41 1009.62 1009.96 1010.48 1010.58 1010.42 1010.60 1010.21 1012.63 1013.67 1013.74 1013.54 1012.69 1012.88 1013.06 1013.67 1014.29 1014.94 1015.27 1015.69 1015.62 1015.57 1015.19 1015.62 1016.08 1017.41 1018.34 1018.66
1006.32 1007.20 1008.05 1008.78 1009.38 1009.85 1010.31 1010.78 1011.25 1011.54 1011.65 1011.86 1011.58 1011.46 1011.53 1010.87 1010.04 1009.53 1008.95 1008.74 1008.67 1009.01 1009.68 1010.31 1010.69 1011.10 1011.81 1012.84 1013.22 1013.12 1012.80 1012.47 1012.53 1012.49 1012.64 1013.54 1014.50 1015.31 1016.00 1016.14 1016.01 1015.44 1016.34 1016.80 1017.38 1018.17 1019.06
1006.19 1007.04 1007.83 1008.52 1009.07 1009.54 1009.96 1010.41 1010.77 1011.03 1011.19 1011.30 1011.38 1010.99 1010.84 1010.82 1009.97 1009.20 1008.52 1008.03 1008.06 1008.25 1009.06 1009.51 1009.99 1010.63 1011.44 1012.13 1012.67 1012.76 1012.66 1012.59 1012.35 1012.78 1012.57 1013.39 1013.68 1014.76 1015.85 1016.13 1016.19 1016.20 1016.54 1016.83 1017.35 1018.36 1019.85
Thickness
5594 5596 5597 5602 5600 5602 5605 5605 5602 5606 5607 5606 5608 5608 5607 5608 5610 5610 5610 5612 5613 5618 5620 5626 5633 5639 5645 5643 5650 5666 5666 5667 5669 5668 5666 5665 5659 5654 5648 5648 5654 5656 5662 5665 5667 5669 5674
5583 5585 5587 5588 5591 5591 5594 5593 5593 5596 5599 5601 5599 5599 5601 5601 5601 5601 5601 5602 5605 5609 5614 5617 5624 5631 5631 5632 5658 5659 5659 5661 5661 5660 5657 5659 5656 5657 5650 5643 5643 5651 5653 5654 5663 5663 5670
5569 5573 5574 5579 5577 5581 5581 5586 5583 5586 5589 5591 5592 5593 5593 5595 5595 5593 5593 5596 5596 5602 5608 5609 5615 5620 5620 5634 5653 5655 5653 5652 5657 5655 5648 5651 5652 5649 5645 5638 5644 5645 5642 5648 5659 5663 5667
5560 5562 5559 5565 5568 5571 5570 5571 5575 5579 5580 5582 5585 5586 5587 5587 5588 5587 5588 5587 5591 5593 5599 5602 5606 5612 5619 5644 5645 5647 5651 5648 5652 5651 5650 5648 5648 5641 5640 5638 5636 5630 5634 5624 5650 5655 5660
5546 5549 5552 5554 5557 5559 5560 5562 5565 5567 5572 5574 5572 5579 5576 5580 5581 5578 5579 5579 5581 5586 5590 5596 5599 5603 5617 5641 5637 5644 5645 5641 5642 5643 5645 5646 5641 5630 5630 5617 5613 5620 5610 5618 5635 5648 5649
5533 5536 5541 5544 5543 5546 5551 5552 5554 5558 5559 5562 5565 5563 5569 5567 5570 5569 5569 5570 5576 5579 5583 5586 5594 5595 5620 5630 5637 5639 5636 5638 5633 5634 5630 5629 5615 5611 5605 5602 5602 5610 5610 5615 5619 5633 5629
5525 5524 5527 5528 5531 5534 5537 5542 5545 5547 5550 5553 5555 5555 5557 5559 5557 5556 5557 5558 5565 5572 5575 5587 5592 5601 5613 5621 5632 5630 5631 5625 5622 5618 5610 5614 5603 5600 5603 5609 5619 5616 5614 5612 5617 5625 5612
5509 5513 5515 5518 5522 5522 5525 5526 5533 5537 5540 5541 5542 5543 5544 5545 5544 5542 5545 5548 5555 5557 5563 5585 5586 5591 5602 5606 5607 5617 5625 5611 5605 5599 5601 5597 5598 5613 5607 5607 5607 5605 5603 5602 5608 5620 5603
5499 5501 5502 5504 5508 5510 5513 5517 5519 5524 5529 5529 5531 5532 5530 5529 5527 5527 5531 5536 5541 5540 5541 5578 5587 5591 5597 5597 5601 5604 5609 5603 5598 5590 5591 5586 5605 5617 5605 5598 5597 5599 5596 5596 5599 5604 5593
5483 5489 5492 5492 5493 5496 5498 5505 5508 5511 5516 5519 5518 5518 5519 5518 5513 5512 5515 5522 5525 5525 5507 5569 5579 5596 5598 5597 5595 5606 5606 5599 5590 5590 5584 5583 5603 5604 5601 5600 5597 5587 5600 5597 5593 5583 5571
5472 5476 5478 5480 5482 5483 5488 5491 5497 5502 5503 5506 5508 5503 5501 5505 5498 5498 5504 5507 5509 5509 5483 5569 5574 5591 5591 5580 5592 5587 5596 5587 5585 5585 5581 5589 5596 5591 5589 5599 5597 5589 5594 5586 5584 5571 5570
5461 5464 5467 5469 5470 5472 5476 5480 5487 5491 5492 5493 5493 5491 5488 5486 5488 5489 5493 5494 5491 5474 5488 5551 5568 5565 5563 5565 5575 5578 5573 5577 5577 5572 5573 5575 5587 5589 5590 5597 5593 5590 5581 5569 5562 5553 5522
5452 5456 5459 5461 5460 5461 5465 5470 5475 5479 5481 5478 5480 5480 5475 5474 5474 5477 5478 5475 5461 5451 5533 5544 5549 5550 5547 5545 5552 5560 5554 5551 5551 5543 5552 5563 5571 5579 5582 5575 5578 5573 5561 5533 5533 5520 5548
5446 5447 5449 5451 5454 5453 5455 5460 5464 5467 5468 5466 5466 5465 5467 5464 5464 5463 5461 5448 5429 5500 5511 5535 5536 5531 5523 5534 5535 5538 5538 5535 5539 5545 5539 5539 5541 5566 5577 5570 5565 5557 5555 5543 5546 5536 5541
5436 5438 5442 5441 5441 5445 5447 5450 5455 5458 5458 5455 5456 5454 5455 5452 5448 5447 5445 5435 5468 5493 5513 5516 5514 5509 5513 5521 5517 5521 5518 5528 5539 5540 5530 5531 5543 5570 5572 5574 5571 5554 5545 5556 5541 5533 5520
5428 5429 5433 5433 5434 5435 5440 5443 5445 5448 5450 5449 5444 5444 5446 5443 5435 5433 5435 5469 5480 5503 5508 5504 5492 5496 5495 5508 5505 5492 5507 5528 5533 5539 5542 5540 5530 5557 5562 5565 5564 5559 5558 5538 5529 5528 5526
5420 5422 5424 5425 5426 5428 5432 5435 5438 5442 5441 5440 5437 5434 5443 5431 5425 5424 5446 5465 5487 5496 5491 5482 5488 5488 5492 5497 5497 5484 5504 5518 5529 5531 5531 5536 5523 5535 5549 5549 5550 5546 5543 5536 5533 5515 5517
5414 5416 5417 5418 5419 5423 5425 5427 5434 5433 5432 5431 5433 5432 5436 5425 5421 5433 5453 5472 5481 5479 5479 5475 5476 5480 5481 5487 5487 5491 5498 5514 5529 5526 5518 5519 5515 5519 5533 5545 5548 5546 5539 5533 5520 5516 5498
5404 5407 5410 5410 5412 5415 5417 5419 5425 5430 5433 5434 5428 5429 5426 5422 5424 5436 5454 5456 5453 5469 5467 5465 5470 5475 5481 5475 5464 5488 5499 5515 5514 5516 5515 5513 5496 5491 5514 5529 5533 5532 5532 5527 5512 5501 5500
5398 5400 5401 5403 5404 5405 5410 5412 5418 5422 5426 5429 5422 5422 5421 5422 5439 5436 5438 5452 5445 5453 5450 5460 5464 5464 5466 5467 5476 5478 5496 5503 5505 5506 5515 5513 5501 5503 5503 5513 5517 5514 5518 5518 5513 5493 5481
5388 5392 5395 5396 5397 5398 5400 5407 5409 5413 5418 5421 5418 5426 5434 5433 5432 5433 5438 5449 5445 5440 5442 5449 5455 5461 5460 5456 5465 5470 5485 5489 5492 5498 5502 5502 5490 5494 5503 5511 5507 5508 5517 5510 5509 5502 5499
5378 5383 5385 5389 5390 5390 5396 5398 5404 5406 5410 5412 5411 5413 5415 5428 5428 5425 5433 5449 5445 5446 5442 5442 5446 5460 5457 5464 5476 5469 5476 5473 5481 5485 5488 5492 5475 5488 5490 5504 5500 5500 5507 5506 5499 5490 5476
5371 5374 5378 5382 5383 5385 5390 5394 5398 5401 5405 5409 5410 5413 5413 5423 5422 5419 5433 5438 5448 5443 5443 5451 5446 5445 5453 5474 5473 5482 5480 5477 5483 5478 5472 5473 5467 5461 5469 5491 5485 5478 5483 5494 5487 5485 5474
5365 5369 5371 5374 5376 5380 5384 5389 5392 5396 5401 5402 5407 5410 5409 5417 5423 5430 5434 5440 5444 5446 5441 5447 5448 5448 5467 5466 5466 5470 5474 5477 5480 5478 5477 5457 5454 5453 5470 5476 5467 5466 5473 5481 5462 5455 5458
5359 5363 5365 5367 5371 5373 5380 5384 5388 5389 5393 5395 5401 5406 5414 5414 5427 5431 5437 5433 5438 5443 5443 5448 5459 5467 5463 5460 5443 5443 5442 5447 5465 5468 5468 5465 5462 5457 5466 5468 5458 5469 5466 5464 5476 5461 5453
5355 5357 5359 5362 5365 5370 5375 5381 5383 5384 5388 5392 5399 5402 5410 5418 5425 5436 5429 5433 5437 5440 5440 5444 5458 5461 5464 5448 5432 5445 5449 5453 5457 5467 5469 5466 5465 5462 5452 5472 5461 5476 5474 5475 5481 5464 5457
5351 5353 5355 5357 5360 5365 5371 5376 5378 5382 5387 5392 5399 5402 5406 5417 5429 5433 5436 5438 5445 5441 5434 5446 5458 5460 5465 5432 5436 5441 5445 5472 5460 5459 5458 5456 5441 5457 5451 5455 5457 5473 5470 5474 5467 5462 5454
5348 5350 5351 5354 5357 5363 5368 5372 5375 5381 5387 5390 5398 5402 5406 5414 5426 5435 5444 5445 5448 5448 5439 5444 5444 5442 5436 5433 5440 5447 5452 5460 5462 5468 5468 5463 5452 5440 5447 5451 5464 5472 5467 5467 5449 5440 5439
5347 5348 5349 5351 5355 5359 5365 5370 5375 5380 5384 5389 5393 5398 5403 5411 5422 5434 5445 5452 5455 5456 5447 5447 5449 5445 5442 5438 5435 5445 5453 5446 5457 5454 5467 5448 5458 5447 5453 5451 5446 5448 5459 5448 5445 5438 5426